Time,TemperatureF,DewpointF,PressureIn,WindDirection,WindDirectionDegrees,WindSpeedMPH,WindSpeedGustMPH,Humidity,HourlyPrecipIn,Conditions,Clouds,dailyrainin,SoftwareType,DateUTC
2014-01-20 00:01:00,35.3,30.9,0.00,ESE,113,3.4,4.0,84,0.00,,,0.00,WUHU216HW,2014-01-20 08:01:00,
2014-01-20 00:07:00,35.3,30.9,0.00,NE,45,3.4,4.0,84,0.00,,,0.00,WUHU216HW,2014-01-20 08:07:00,
2014-01-20 00:12:00,35.3,31.1,0.00,ENE,68,1.6,3.4,85,0.00,,,0.00,WUHU216HW,2014-01-20 08:12:00,
2014-01-20 00:17:00,35.1,31.0,0.00,ENE,68,0.7,4.0,85,0.00,,,0.00,WUHU216HW,2014-01-20 08:17:00,
2014-01-20 00:22:00,35.1,31.0,0.00,East,90,2.0,4.0,85,0.00,,,0.00,WUHU216HW,2014-01-20 08:22:00,
2014-01-20 00:27:00,35.1,31.0,0.00,NNE,23,0.7,4.0,85,0.00,,,0.00,WUHU216HW,2014-01-20 08:27:00,
2014-01-20 00:32:00,35.1,31.0,0.00,SE,135,1.8,4.7,85,0.00,,,0.00,WUHU216HW,2014-01-20 08:32:00,
2014-01-20 00:37:00,35.1,31.0,0.00,ESE,113,1.6,4.7,85,0.00,,,0.00,WUHU216HW,2014-01-20 08:37:00,
2014-01-20 00:42:00,35.1,30.7,0.00,ESE,113,1.1,2.7,84,0.00,,,0.00,WUHU216HW,2014-01-20 08:42:00,
2014-01-20 00:47:00,35.1,30.7,0.00,East,90,1.6,2.5,84,0.00,,,0.00,WUHU216HW,2014-01-20 08:47:00,
2014-01-20 00:52:00,35.1,31.0,0.00,SE,135,0.7,3.6,85,0.00,,,0.00,WUHU216HW,2014-01-20 08:52:00,
2014-01-20 00:57:00,35.1,30.7,0.00,East,90,0.4,3.6,84,0.00,,,0.00,WUHU216HW,2014-01-20 08:57:00,
2014-01-20 01:02:00,35.1,30.7,0.00,East,90,2.2,3.6,84,0.00,,,0.00,WUHU216HW,2014-01-20 09:02:00,
2014-01-20 01:07:00,35.1,30.7,0.00,ESE,113,0.2,3.1,84,0.00,,,0.00,WUHU216HW,2014-01-20 09:07:00,
2014-01-20 01:12:00,35.1,30.7,0.00,East,90,2.0,5.1,84,0.00,,,0.00,WUHU216HW,2014-01-20 09:12:00,
2014-01-20 01:17:00,35.1,30.7,0.00,ESE,113,3.4,5.1,84,0.00,,,0.00,WUHU216HW,2014-01-20 09:17:00,
2014-01-20 01:22:00,35.3,30.9,0.00,ESE,113,0.7,4.5,84,0.00,,,0.00,WUHU216HW,2014-01-20 09:22:00,
2014-01-20 01:27:00,35.3,30.9,0.00,East,90,0.4,3.4,84,0.00,,,0.00,WUHU216HW,2014-01-20 09:27:00,
2014-01-20 01:32:00,35.3,30.9,0.00,SE,135,0.4,4.0,84,0.00,,,0.00,WUHU216HW,2014-01-20 09:32:00,
2014-01-20 01:36:00,35.1,30.7,0.00,ESE,113,2.2,5.1,84,0.00,,,0.00,WUHU216HW,2014-01-20 09:36:00,
2014-01-20 01:42:00,35.1,30.7,0.00,ESE,113,5.1,5.1,84,0.00,,,0.00,WUHU216HW,2014-01-20 09:42:00,
2014-01-20 01:47:00,35.3,30.9,0.00,East,90,1.3,5.1,84,0.00,,,0.00,WUHU216HW,2014-01-20 09:47:00,
2014-01-20 01:52:00,35.3,30.9,0.00,East,90,1.6,5.8,84,0.00,,,0.00,WUHU216HW,2014-01-20 09:52:00,
2014-01-20 01:57:00,35.3,30.9,0.00,East,90,1.1,5.8,84,0.00,,,0.00,WUHU216HW,2014-01-20 09:57:00,
2014-01-20 02:02:00,35.3,30.9,0.00,SE,135,1.1,3.4,84,0.00,,,0.00,WUHU216HW,2014-01-20 10:02:00,
2014-01-20 02:07:00,35.3,30.9,0.00,SE,135,0.7,4.0,84,0.00,,,0.00,WUHU216HW,2014-01-20 10:07:00,
2014-01-20 02:12:00,35.3,30.9,0.00,ESE,113,2.5,4.7,84,0.00,,,0.00,WUHU216HW,2014-01-20 10:12:00,
2014-01-20 02:17:00,35.3,30.9,0.00,SE,135,1.6,4.7,84,0.00,,,0.00,WUHU216HW,2014-01-20 10:17:00,
2014-01-20 02:22:00,35.3,30.9,0.00,SE,135,0.7,2.7,84,0.00,,,0.00,WUHU216HW,2014-01-20 10:22:00,
2014-01-20 02:27:00,35.3,30.9,0.00,SE,135,0.9,3.1,84,0.00,,,0.00,WUHU216HW,2014-01-20 10:27:00,
2014-01-20 02:32:00,35.3,30.9,0.00,SE,135,2.9,4.0,84,0.00,,,0.00,WUHU216HW,2014-01-20 10:32:00,
2014-01-20 02:37:00,35.3,30.9,0.00,East,90,1.1,5.4,84,0.00,,,0.00,WUHU216HW,2014-01-20 10:37:00,
2014-01-20 02:42:00,35.3,30.9,0.00,ESE,113,1.3,5.4,84,0.00,,,0.00,WUHU216HW,2014-01-20 10:42:00,
2014-01-20 02:47:00,35.3,30.9,0.00,SE,135,1.8,2.0,84,0.00,,,0.00,WUHU216HW,2014-01-20 10:47:00,
2014-01-20 02:52:00,35.3,30.9,0.00,ESE,113,2.5,2.5,84,0.00,,,0.00,WUHU216HW,2014-01-20 10:52:00,
2014-01-20 02:57:00,35.3,30.9,0.00,East,90,1.3,5.1,84,0.00,,,0.00,WUHU216HW,2014-01-20 10:57:00,
2014-01-20 03:02:00,35.3,30.9,0.00,ESE,113,1.8,5.6,84,0.00,,,0.00,WUHU216HW,2014-01-20 11:02:00,
2014-01-20 03:07:00,35.3,30.9,0.00,SE,135,3.1,5.6,84,0.00,,,0.00,WUHU216HW,2014-01-20 11:07:00,
2014-01-20 03:12:00,35.1,30.7,0.00,East,90,1.8,4.7,84,0.00,,,0.00,WUHU216HW,2014-01-20 11:12:00,
2014-01-20 03:17:00,35.1,30.7,0.00,ESE,113,1.6,4.7,84,0.00,,,0.00,WUHU216HW,2014-01-20 11:17:00,
2014-01-20 03:22:00,35.1,30.7,0.00,SE,135,1.8,5.1,84,0.00,,,0.00,WUHU216HW,2014-01-20 11:22:00,
2014-01-20 03:27:00,35.1,30.7,0.00,SSE,158,1.8,5.1,84,0.00,,,0.00,WUHU216HW,2014-01-20 11:27:00,
2014-01-20 03:32:00,35.1,30.7,0.00,East,90,0.7,4.7,84,0.00,,,0.00,WUHU216HW,2014-01-20 11:32:00,
2014-01-20 03:37:00,35.1,30.4,0.00,SE,135,0.4,2.9,83,0.00,,,0.00,WUHU216HW,2014-01-20 11:37:00,
2014-01-20 03:42:00,35.1,30.4,0.00,ESE,113,2.0,2.7,83,0.00,,,0.00,WUHU216HW,2014-01-20 11:42:00,
2014-01-20 03:47:00,35.1,30.4,0.00,SE,135,2.2,3.8,83,0.00,,,0.00,WUHU216HW,2014-01-20 11:47:00,
2014-01-20 03:52:00,35.1,30.4,0.00,SE,135,4.0,4.9,83,0.00,,,0.00,WUHU216HW,2014-01-20 11:52:00,
2014-01-20 03:57:00,35.1,30.4,0.00,SE,135,1.8,5.8,83,0.00,,,0.00,WUHU216HW,2014-01-20 11:57:00,
2014-01-20 04:02:00,35.1,30.1,0.00,SSE,158,2.5,5.8,82,0.00,,,0.00,WUHU216HW,2014-01-20 12:02:00,
2014-01-20 04:07:00,35.3,30.6,0.00,SE,135,2.0,5.6,83,0.00,,,0.00,WUHU216HW,2014-01-20 12:07:00,
2014-01-20 04:12:00,35.3,30.6,0.00,SE,135,3.4,5.6,83,0.00,,,0.00,WUHU216HW,2014-01-20 12:12:00,
2014-01-20 04:17:00,35.3,30.6,0.00,SSE,158,3.6,5.8,83,0.00,,,0.00,WUHU216HW,2014-01-20 12:17:00,
2014-01-20 04:22:00,35.3,30.6,0.00,SE,135,4.0,5.8,83,0.00,,,0.00,WUHU216HW,2014-01-20 12:22:00,
2014-01-20 04:27:00,35.1,30.1,0.00,ESE,113,3.4,6.0,82,0.00,,,0.00,WUHU216HW,2014-01-20 12:27:00,
2014-01-20 04:32:00,34.9,30.3,0.00,East,90,2.2,6.0,83,0.00,,,0.00,WUHU216HW,2014-01-20 12:32:00,
2014-01-20 04:37:00,34.9,29.9,0.00,East,90,1.8,4.0,82,0.00,,,0.00,WUHU216HW,2014-01-20 12:37:00,
2014-01-20 04:42:00,34.9,30.3,0.00,East,90,0.2,3.4,83,0.00,,,0.00,WUHU216HW,2014-01-20 12:42:00,
2014-01-20 04:47:00,34.9,30.3,0.00,ESE,113,1.6,3.6,83,0.00,,,0.00,WUHU216HW,2014-01-20 12:47:00,
2014-01-20 04:52:00,34.9,29.9,0.00,ESE,113,1.3,5.8,82,0.00,,,0.00,WUHU216HW,2014-01-20 12:52:00,
2014-01-20 04:57:00,35.1,30.1,0.00,ESE,113,0.0,5.8,82,0.00,,,0.00,WUHU216HW,2014-01-20 12:57:00,
2014-01-20 05:02:00,34.9,29.9,0.00,SE,135,1.6,6.3,82,0.00,,,0.00,WUHU216HW,2014-01-20 13:02:00,
2014-01-20 05:07:00,35.1,30.1,0.00,ESE,113,1.1,6.3,82,0.00,,,0.00,WUHU216HW,2014-01-20 13:07:00,
2014-01-20 05:12:00,35.1,30.1,0.00,SSE,158,1.3,6.9,82,0.00,,,0.00,WUHU216HW,2014-01-20 13:12:00,
2014-01-20 05:17:00,34.9,29.9,0.00,ENE,68,2.9,6.9,82,0.00,,,0.00,WUHU216HW,2014-01-20 13:17:00,
2014-01-20 05:22:00,35.1,30.1,0.00,SE,135,1.1,5.6,82,0.00,,,0.00,WUHU216HW,2014-01-20 13:22:00,
2014-01-20 05:27:00,34.9,29.6,0.00,ENE,68,1.1,4.5,81,0.00,,,0.00,WUHU216HW,2014-01-20 13:27:00,
2014-01-20 05:32:00,34.9,29.6,0.00,ESE,113,2.5,4.9,81,0.00,,,0.00,WUHU216HW,2014-01-20 13:32:00,
2014-01-20 05:37:00,34.9,29.6,0.00,North,0,1.1,4.9,81,0.00,,,0.00,WUHU216HW,2014-01-20 13:37:00,
2014-01-20 05:42:00,34.9,29.6,0.00,NNW,338,0.0,8.1,81,0.00,,,0.00,WUHU216HW,2014-01-20 13:42:00,
2014-01-20 05:47:00,35.1,29.8,0.00,ESE,113,6.5,8.1,81,0.00,,,0.00,WUHU216HW,2014-01-20 13:47:00,
2014-01-20 05:52:00,34.9,29.6,0.00,ESE,113,1.8,6.5,81,0.00,,,0.00,WUHU216HW,2014-01-20 13:52:00,
2014-01-20 05:57:00,34.9,29.9,0.00,SE,135,1.1,6.5,82,0.00,,,0.00,WUHU216HW,2014-01-20 13:57:00,
2014-01-20 06:02:00,34.9,29.9,0.00,SE,135,10.5,10.5,82,0.00,,,0.00,WUHU216HW,2014-01-20 14:02:00,
2014-01-20 06:07:00,34.9,29.9,0.00,SE,135,1.1,10.5,82,0.00,,,0.00,WUHU216HW,2014-01-20 14:07:00,
2014-01-20 06:12:00,34.9,29.9,0.00,SSE,158,1.8,10.5,82,0.00,,,0.00,WUHU216HW,2014-01-20 14:12:00,
2014-01-20 06:17:00,34.9,29.9,0.00,NW,315,0.4,6.3,82,0.00,,,0.00,WUHU216HW,2014-01-20 14:17:00,
2014-01-20 06:22:00,34.9,29.9,0.00,East,90,1.3,9.8,82,0.00,,,0.00,WUHU216HW,2014-01-20 14:22:00,
2014-01-20 06:27:00,34.9,29.9,0.00,SSW,203,4.3,9.8,82,0.00,,,0.00,WUHU216HW,2014-01-20 14:27:00,
2014-01-20 06:32:00,34.9,30.3,0.00,SE,135,0.9,7.4,83,0.00,,,0.00,WUHU216HW,2014-01-20 14:32:00,
2014-01-20 06:37:00,34.9,30.3,0.00,North,0,1.3,7.4,83,0.00,,,0.00,WUHU216HW,2014-01-20 14:37:00,
2014-01-20 06:42:00,34.9,30.3,0.00,ESE,113,3.6,4.7,83,0.00,,,0.00,WUHU216HW,2014-01-20 14:42:00,
2014-01-20 06:47:00,34.9,30.3,0.00,East,90,2.9,4.9,83,0.00,,,0.00,WUHU216HW,2014-01-20 14:47:00,
2014-01-20 06:52:00,34.9,30.5,0.00,ENE,68,3.4,5.6,84,0.00,,,0.00,WUHU216HW,2014-01-20 14:52:00,
2014-01-20 06:57:00,34.9,30.3,0.00,ESE,113,2.0,5.6,83,0.00,,,0.00,WUHU216HW,2014-01-20 14:57:00,
2014-01-20 07:02:00,34.7,30.3,0.00,ESE,113,2.7,4.7,84,0.00,,,0.00,WUHU216HW,2014-01-20 15:02:00,
2014-01-20 07:07:00,34.7,30.1,0.00,East,90,2.9,4.7,83,0.00,,,0.00,WUHU216HW,2014-01-20 15:07:00,
2014-01-20 07:12:00,34.9,30.3,0.00,ENE,68,2.5,5.4,83,0.00,,,0.00,WUHU216HW,2014-01-20 15:12:00,
2014-01-20 07:17:00,34.9,30.3,0.00,SSE,158,5.1,5.4,83,0.00,,,0.00,WUHU216HW,2014-01-20 15:17:00,
2014-01-20 07:22:00,34.9,30.3,0.00,ENE,68,1.1,5.1,83,0.00,,,0.00,WUHU216HW,2014-01-20 15:22:00,
2014-01-20 07:27:00,34.9,30.3,0.00,ESE,113,4.7,5.1,83,0.00,,,0.00,WUHU216HW,2014-01-20 15:27:00,
2014-01-20 07:32:00,34.7,30.1,0.00,East,90,3.4,5.1,83,0.00,,,0.00,WUHU216HW,2014-01-20 15:32:00,
2014-01-20 07:37:00,34.7,30.3,0.00,ENE,68,5.6,6.7,84,0.00,,,0.00,WUHU216HW,2014-01-20 15:37:00,
2014-01-20 07:42:00,34.7,30.1,0.00,ESE,113,1.6,6.7,83,0.00,,,0.00,WUHU216HW,2014-01-20 15:42:00,
2014-01-20 07:47:00,34.7,30.3,0.00,NE,45,1.3,6.0,84,0.00,,,0.00,WUHU216HW,2014-01-20 15:47:00,
2014-01-20 07:52:00,34.7,30.3,0.00,ESE,113,2.5,8.5,84,0.00,,,0.00,WUHU216HW,2014-01-20 15:52:00,
2014-01-20 07:57:00,34.7,30.3,0.00,SSE,158,3.4,8.5,84,0.00,,,0.00,WUHU216HW,2014-01-20 15:57:00,
2014-01-20 08:02:00,34.6,30.2,0.00,East,90,2.2,4.7,84,0.00,,,0.00,WUHU216HW,2014-01-20 16:02:00,
2014-01-20 08:07:00,34.6,30.2,0.00,SE,135,0.4,4.0,84,0.00,,,0.00,WUHU216HW,2014-01-20 16:07:00,
2014-01-20 08:12:00,34.7,30.3,0.00,SSE,158,1.1,4.7,84,0.00,,,0.00,WUHU216HW,2014-01-20 16:12:00,
2014-01-20 08:17:00,34.7,30.3,0.00,East,90,0.2,4.7,84,0.00,,,0.00,WUHU216HW,2014-01-20 16:17:00,
2014-01-20 08:22:00,34.7,30.3,0.00,NE,45,1.3,4.7,84,0.00,,,0.00,WUHU216HW,2014-01-20 16:22:00,
2014-01-20 08:27:00,34.7,30.3,0.00,ESE,113,2.2,4.7,84,0.00,,,0.00,WUHU216HW,2014-01-20 16:27:00,
2014-01-20 08:32:00,34.7,30.3,0.00,SSW,203,1.1,4.9,84,0.00,,,0.00,WUHU216HW,2014-01-20 16:32:00,
2014-01-20 08:37:00,34.7,30.3,0.00,NE,45,1.6,4.9,84,0.00,,,0.00,WUHU216HW,2014-01-20 16:37:00,
2014-01-20 08:42:00,34.7,30.3,0.00,ESE,113,2.7,4.7,84,0.00,,,0.00,WUHU216HW,2014-01-20 16:42:00,
2014-01-20 08:47:00,34.7,30.3,0.00,SE,135,2.0,6.9,84,0.00,,,0.00,WUHU216HW,2014-01-20 16:47:00,
2014-01-20 08:52:00,34.9,30.5,0.00,ENE,68,2.9,7.2,84,0.00,,,0.00,WUHU216HW,2014-01-20 16:52:00,
2014-01-20 08:57:00,34.7,30.3,0.00,ESE,113,1.1,7.2,84,0.00,,,0.00,WUHU216HW,2014-01-20 16:57:00,
2014-01-20 09:02:00,34.9,30.5,0.00,ENE,68,1.1,6.5,84,0.00,,,0.00,WUHU216HW,2014-01-20 17:02:00,
2014-01-20 09:07:00,34.7,30.3,0.00,ESE,113,3.8,3.8,84,0.00,,,0.00,WUHU216HW,2014-01-20 17:07:00,
2014-01-20 09:12:00,34.7,30.3,0.00,SE,135,6.9,6.9,84,0.00,,,0.00,WUHU216HW,2014-01-20 17:12:00,
2014-01-20 09:17:00,34.9,30.5,0.00,ENE,68,1.8,6.9,84,0.00,,,0.00,WUHU216HW,2014-01-20 17:17:00,
2014-01-20 09:22:00,34.7,30.3,0.00,East,90,0.4,4.5,84,0.00,,,0.00,WUHU216HW,2014-01-20 17:22:00,
2014-01-20 09:27:00,34.9,30.5,0.00,ENE,68,1.6,4.7,84,0.00,,,0.00,WUHU216HW,2014-01-20 17:27:00,
2014-01-20 09:32:00,34.9,30.3,0.00,East,90,1.8,5.4,83,0.00,,,0.00,WUHU216HW,2014-01-20 17:32:00,
2014-01-20 09:37:00,34.9,30.3,0.00,SE,135,1.8,7.4,83,0.00,,,0.00,WUHU216HW,2014-01-20 17:37:00,
2014-01-20 09:42:00,34.9,30.3,0.00,East,90,3.1,7.4,83,0.00,,,0.00,WUHU216HW,2014-01-20 17:42:00,
2014-01-20 09:47:00,35.1,30.4,0.00,SE,135,3.1,4.7,83,0.00,,,0.00,WUHU216HW,2014-01-20 17:47:00,
2014-01-20 09:52:00,35.1,30.4,0.00,ENE,68,2.5,4.0,83,0.00,,,0.00,WUHU216HW,2014-01-20 17:52:00,
2014-01-20 09:57:00,35.1,30.4,0.00,ESE,113,0.7,5.6,83,0.00,,,0.00,WUHU216HW,2014-01-20 17:57:00,
2014-01-20 10:02:00,35.1,30.4,0.00,East,90,1.8,5.6,83,0.00,,,0.00,WUHU216HW,2014-01-20 18:02:00,
2014-01-20 10:07:00,35.1,30.1,0.00,ESE,113,2.7,5.4,82,0.00,,,0.00,WUHU216HW,2014-01-20 18:07:00,
2014-01-20 10:12:00,35.3,30.2,0.00,SE,135,2.2,7.6,82,0.00,,,0.00,WUHU216HW,2014-01-20 18:12:00,
2014-01-20 10:17:00,35.3,30.0,0.00,East,90,1.8,7.6,81,0.00,,,0.00,WUHU216HW,2014-01-20 18:17:00,
2014-01-20 10:22:00,35.5,29.9,0.00,NE,45,2.7,6.0,80,0.00,,,0.00,WUHU216HW,2014-01-20 18:22:00,
2014-01-20 10:27:00,35.5,30.2,0.00,East,90,2.0,6.0,81,0.00,,,0.00,WUHU216HW,2014-01-20 18:27:00,
2014-01-20 10:32:00,35.5,29.9,0.00,East,90,3.4,6.7,80,0.00,,,0.00,WUHU216HW,2014-01-20 18:32:00,
2014-01-20 10:37:00,35.6,30.3,0.00,ESE,113,1.3,6.7,81,0.00,,,0.00,WUHU216HW,2014-01-20 18:37:00,
2014-01-20 10:42:00,35.6,30.3,0.00,ENE,68,2.5,5.6,81,0.00,,,0.00,WUHU216HW,2014-01-20 18:42:00,
2014-01-20 10:47:00,35.6,30.6,0.00,SE,135,1.1,5.6,82,0.00,,,0.00,WUHU216HW,2014-01-20 18:47:00,
2014-01-20 10:52:00,35.6,30.3,0.00,East,90,1.1,4.7,81,0.00,,,0.00,WUHU216HW,2014-01-20 18:52:00,
2014-01-20 10:57:00,35.6,30.1,0.00,SE,135,4.0,4.7,80,0.00,,,0.00,WUHU216HW,2014-01-20 18:57:00,
2014-01-20 11:02:00,35.6,30.1,0.00,SE,135,4.7,5.4,80,0.00,,,0.00,WUHU216HW,2014-01-20 19:02:00,
2014-01-20 11:07:00,35.6,30.1,0.00,ESE,113,2.0,5.4,80,0.00,,,0.00,WUHU216HW,2014-01-20 19:07:00,
2014-01-20 11:12:00,36.0,30.4,0.00,SW,225,3.4,4.9,80,0.00,,,0.00,WUHU216HW,2014-01-20 19:12:00,
2014-01-20 11:17:00,35.8,30.2,0.00,South,180,1.3,6.9,80,0.00,,,0.00,WUHU216HW,2014-01-20 19:17:00,
2014-01-20 11:22:00,36.0,30.4,0.00,ESE,113,5.4,6.9,80,0.00,,,0.00,WUHU216HW,2014-01-20 19:22:00,
2014-01-20 11:27:00,36.0,30.4,0.00,SSE,158,5.8,7.2,80,0.00,,,0.00,WUHU216HW,2014-01-20 19:27:00,
2014-01-20 11:32:00,36.0,30.4,0.00,NNE,23,1.6,7.2,80,0.00,,,0.00,WUHU216HW,2014-01-20 19:32:00,
2014-01-20 11:37:00,36.0,30.4,0.00,ESE,113,2.5,5.8,80,0.00,,,0.00,WUHU216HW,2014-01-20 19:37:00,
2014-01-20 11:42:00,36.0,30.4,0.00,ESE,113,3.8,5.4,80,0.00,,,0.00,WUHU216HW,2014-01-20 19:42:00,
2014-01-20 11:47:00,36.0,30.1,0.00,SSE,158,4.0,4.7,79,0.00,,,0.00,WUHU216HW,2014-01-20 19:47:00,
2014-01-20 11:52:00,36.2,30.6,0.00,SE,135,5.4,5.4,80,0.00,,,0.00,WUHU216HW,2014-01-20 19:52:00,
2014-01-20 11:57:00,36.0,30.4,0.00,ESE,113,0.4,6.3,80,0.00,,,0.00,WUHU216HW,2014-01-20 19:57:00,
2014-01-20 12:02:00,36.0,30.4,0.00,ESE,113,1.8,6.3,80,0.00,,,0.00,WUHU216HW,2014-01-20 20:02:00,
2014-01-20 12:07:00,36.0,30.1,0.00,ESE,113,2.0,5.6,79,0.00,,,0.00,WUHU216HW,2014-01-20 20:07:00,
2014-01-20 12:12:00,36.2,30.6,0.00,ENE,68,2.5,4.7,80,0.00,,,0.00,WUHU216HW,2014-01-20 20:12:00,
2014-01-20 12:17:00,36.2,30.6,0.00,ESE,113,8.7,8.7,80,0.00,,,0.00,WUHU216HW,2014-01-20 20:17:00,
2014-01-20 12:22:00,36.0,30.4,0.00,SSE,158,2.9,8.7,80,0.00,,,0.00,WUHU216HW,2014-01-20 20:22:00,
2014-01-20 12:27:00,36.0,30.4,0.00,East,90,5.4,8.7,80,0.00,,,0.00,WUHU216HW,2014-01-20 20:27:00,
2014-01-20 12:32:00,36.0,30.1,0.00,SE,135,1.6,6.3,79,0.00,,,0.00,WUHU216HW,2014-01-20 20:32:00,
2014-01-20 12:37:00,36.0,30.4,0.00,SE,135,0.4,6.3,80,0.00,,,0.00,WUHU216HW,2014-01-20 20:37:00,
2014-01-20 12:42:00,36.0,30.4,0.00,SE,135,2.2,6.3,80,0.00,,,0.00,WUHU216HW,2014-01-20 20:42:00,
2014-01-20 12:47:00,35.8,30.2,0.00,SE,135,2.9,6.3,80,0.00,,,0.00,WUHU216HW,2014-01-20 20:47:00,
2014-01-20 12:52:00,35.8,30.2,0.00,East,90,1.8,5.4,80,0.00,,,0.00,WUHU216HW,2014-01-20 20:52:00,
2014-01-20 12:57:00,35.8,30.2,0.00,SE,135,1.6,5.4,80,0.00,,,0.00,WUHU216HW,2014-01-20 20:57:00,
2014-01-20 13:02:00,35.8,30.2,0.00,ESE,113,1.8,4.3,80,0.00,,,0.00,WUHU216HW,2014-01-20 21:02:00,
2014-01-20 13:07:00,35.6,30.1,0.00,SE,135,1.1,9.2,80,0.00,,,0.00,WUHU216HW,2014-01-20 21:07:00,
2014-01-20 13:12:00,35.8,30.2,0.00,SE,135,4.0,9.2,80,0.00,,,0.00,WUHU216HW,2014-01-20 21:12:00,
2014-01-20 13:17:00,35.8,30.2,0.00,ESE,113,4.7,7.4,80,0.00,,,0.00,WUHU216HW,2014-01-20 21:17:00,
2014-01-20 13:22:00,35.6,30.1,0.00,ESE,113,3.4,7.4,80,0.00,,,0.00,WUHU216HW,2014-01-20 21:22:00,
2014-01-20 13:27:00,35.6,30.1,0.00,SE,135,1.3,5.4,80,0.00,,,0.00,WUHU216HW,2014-01-20 21:27:00,
2014-01-20 13:32:00,35.6,30.1,0.00,SE,135,4.7,4.9,80,0.00,,,0.00,WUHU216HW,2014-01-20 21:32:00,
2014-01-20 13:37:00,35.6,30.1,0.00,ENE,68,0.9,6.7,80,0.00,,,0.00,WUHU216HW,2014-01-20 21:37:00,
2014-01-20 13:42:00,35.6,29.7,0.00,ESE,113,2.5,6.7,79,0.00,,,0.00,WUHU216HW,2014-01-20 21:42:00,
2014-01-20 13:47:00,35.6,29.7,0.00,SSE,158,4.5,5.8,79,0.00,,,0.00,WUHU216HW,2014-01-20 21:47:00,
2014-01-20 13:52:00,35.6,29.7,0.00,East,90,4.7,6.9,79,0.00,,,0.00,WUHU216HW,2014-01-20 21:52:00,
2014-01-20 13:57:00,35.6,29.7,0.00,ESE,113,2.5,6.9,79,0.00,,,0.00,WUHU216HW,2014-01-20 21:57:00,
2014-01-20 14:02:00,35.6,30.1,0.00,SE,135,2.2,6.7,80,0.00,,,0.00,WUHU216HW,2014-01-20 22:02:00,
2014-01-20 14:07:00,35.6,30.1,0.00,SE,135,2.5,6.9,80,0.00,,,0.00,WUHU216HW,2014-01-20 22:07:00,
2014-01-20 14:12:00,35.6,30.1,0.00,SE,135,2.0,8.5,80,0.00,,,0.00,WUHU216HW,2014-01-20 22:12:00,
2014-01-20 14:17:00,35.5,29.5,0.00,SSE,158,6.9,8.5,79,0.00,,,0.00,WUHU216HW,2014-01-20 22:17:00,
2014-01-20 14:22:00,35.5,29.5,0.00,SE,135,3.8,6.9,79,0.00,,,0.00,WUHU216HW,2014-01-20 22:22:00,
2014-01-20 14:27:00,35.5,29.5,0.00,ESE,113,2.9,6.9,79,0.00,,,0.00,WUHU216HW,2014-01-20 22:27:00,
2014-01-20 14:32:00,35.5,29.9,0.00,East,90,2.7,6.9,80,0.00,,,0.00,WUHU216HW,2014-01-20 22:32:00,
2014-01-20 14:37:00,35.5,29.9,0.00,South,180,3.4,6.3,80,0.00,,,0.00,WUHU216HW,2014-01-20 22:37:00,
2014-01-20 14:42:00,35.5,29.5,0.00,ESE,113,4.7,6.3,79,0.00,,,0.00,WUHU216HW,2014-01-20 22:42:00,
2014-01-20 14:47:00,35.3,29.3,0.00,East,90,3.4,5.1,79,0.00,,,0.00,WUHU216HW,2014-01-20 22:47:00,
2014-01-20 14:52:00,35.5,29.9,0.00,SE,135,3.1,5.1,80,0.00,,,0.00,WUHU216HW,2014-01-20 22:52:00,
2014-01-20 14:57:00,35.5,29.5,0.00,SE,135,4.0,4.5,79,0.00,,,0.00,WUHU216HW,2014-01-20 22:57:00,
2014-01-20 15:02:00,35.3,29.3,0.00,East,90,3.6,5.1,79,0.00,,,0.00,WUHU216HW,2014-01-20 23:02:00,
2014-01-20 15:07:00,35.3,29.3,0.00,SE,135,1.8,5.1,79,0.00,,,0.00,WUHU216HW,2014-01-20 23:07:00,
2014-01-20 15:12:00,35.3,29.3,0.00,ESE,113,2.0,4.7,79,0.00,,,0.00,WUHU216HW,2014-01-20 23:12:00,
2014-01-20 15:17:00,35.5,29.5,0.00,East,90,0.7,2.9,79,0.00,,,0.00,WUHU216HW,2014-01-20 23:17:00,
2014-01-20 15:22:00,35.3,29.3,0.00,ESE,113,3.1,3.4,79,0.00,,,0.00,WUHU216HW,2014-01-20 23:22:00,
2014-01-20 15:27:00,35.3,29.3,0.00,SSE,158,1.8,4.7,79,0.00,,,0.00,WUHU216HW,2014-01-20 23:27:00,
2014-01-20 15:32:00,35.3,29.3,0.00,ESE,113,0.0,4.7,79,0.00,,,0.00,WUHU216HW,2014-01-20 23:32:00,
2014-01-20 15:37:00,35.3,29.3,0.00,South,180,4.3,4.3,79,0.00,,,0.00,WUHU216HW,2014-01-20 23:37:00,
2014-01-20 15:42:00,35.3,29.3,0.00,ESE,113,3.6,6.3,79,0.00,,,0.00,WUHU216HW,2014-01-20 23:42:00,
2014-01-20 15:47:00,35.3,29.3,0.00,ESE,113,1.1,6.3,79,0.00,,,0.00,WUHU216HW,2014-01-20 23:47:00,
2014-01-20 15:52:00,35.3,29.3,0.00,ESE,113,1.8,3.6,79,0.00,,,0.00,WUHU216HW,2014-01-20 23:52:00,
2014-01-20 15:57:00,35.3,29.3,0.00,SSE,158,2.0,4.7,79,0.00,,,0.00,WUHU216HW,2014-01-20 23:57:00,
2014-01-20 16:02:00,35.3,29.3,0.00,SE,135,3.1,7.6,79,0.00,,,0.00,WUHU216HW,2014-01-21 00:02:00,
2014-01-20 16:07:00,35.1,29.5,0.00,East,90,3.4,7.6,80,0.00,,,0.00,WUHU216HW,2014-01-21 00:07:00,
2014-01-20 16:12:00,35.1,29.5,0.00,ESE,113,2.9,4.7,80,0.00,,,0.00,WUHU216HW,2014-01-21 00:12:00,
2014-01-20 16:17:00,35.1,29.5,0.00,North,0,1.1,4.5,80,0.00,,,0.00,WUHU216HW,2014-01-21 00:17:00,
2014-01-20 16:22:00,35.1,29.5,0.00,ENE,68,1.1,4.5,80,0.00,,,0.00,WUHU216HW,2014-01-21 00:22:00,
2014-01-20 16:27:00,35.1,29.5,0.00,ESE,113,2.2,6.3,80,0.00,,,0.00,WUHU216HW,2014-01-21 00:27:00,
2014-01-20 16:32:00,34.9,29.3,0.00,East,90,0.4,6.3,80,0.00,,,0.00,WUHU216HW,2014-01-21 00:32:00,
2014-01-20 16:37:00,35.1,29.5,0.00,ESE,113,1.1,4.0,80,0.00,,,0.00,WUHU216HW,2014-01-21 00:37:00,
2014-01-20 16:42:00,35.1,29.5,0.00,SE,135,0.0,4.0,80,0.00,,,0.00,WUHU216HW,2014-01-21 00:42:00,
2014-01-20 16:47:00,35.1,29.2,0.00,SE,135,2.9,3.1,79,0.00,,,0.00,WUHU216HW,2014-01-21 00:47:00,
2014-01-20 16:52:00,35.1,29.5,0.00,SE,135,1.1,3.4,80,0.00,,,0.00,WUHU216HW,2014-01-21 00:52:00,
2014-01-20 16:57:00,34.9,29.3,0.00,NE,45,0.9,3.6,80,0.00,,,0.00,WUHU216HW,2014-01-21 00:57:00,
2014-01-20 17:02:00,34.9,29.3,0.00,NNE,23,0.7,3.6,80,0.00,,,0.00,WUHU216HW,2014-01-21 01:02:00,
2014-01-20 17:07:00,34.9,29.0,0.00,SSE,158,3.1,3.1,79,0.00,,,0.00,WUHU216HW,2014-01-21 01:07:00,
2014-01-20 17:12:00,34.9,29.0,0.00,NE,45,1.8,3.6,79,0.00,,,0.00,WUHU216HW,2014-01-21 01:12:00,
2014-01-20 17:17:00,34.9,29.0,0.00,ESE,113,4.0,5.4,79,0.00,,,0.00,WUHU216HW,2014-01-21 01:17:00,
2014-01-20 17:22:00,34.9,29.0,0.00,ENE,68,2.2,5.4,79,0.00,,,0.00,WUHU216HW,2014-01-21 01:22:00,
2014-01-20 17:27:00,34.9,29.0,0.00,SE,135,1.1,4.3,79,0.00,,,0.00,WUHU216HW,2014-01-21 01:27:00,
2014-01-20 17:32:00,34.9,29.0,0.00,SW,225,0.9,4.3,79,0.00,,,0.00,WUHU216HW,2014-01-21 01:32:00,
2014-01-20 17:37:00,34.9,29.3,0.00,ENE,68,1.6,5.6,80,0.00,,,0.00,WUHU216HW,2014-01-21 01:37:00,
2014-01-20 17:42:00,34.9,29.3,0.00,SE,135,0.7,5.6,80,0.00,,,0.00,WUHU216HW,2014-01-21 01:42:00,
2014-01-20 17:47:00,34.9,29.3,0.00,East,90,2.7,2.7,80,0.00,,,0.00,WUHU216HW,2014-01-21 01:47:00,
2014-01-20 17:52:00,34.9,29.0,0.00,ENE,68,0.7,5.8,79,0.00,,,0.00,WUHU216HW,2014-01-21 01:52:00,
2014-01-20 17:57:00,34.9,29.0,0.00,SE,135,0.9,5.8,79,0.00,,,0.00,WUHU216HW,2014-01-21 01:57:00,
2014-01-20 18:02:00,34.9,29.3,0.00,SE,135,0.2,4.0,80,0.00,,,0.00,WUHU216HW,2014-01-21 02:02:00,
2014-01-20 18:07:00,35.1,29.5,0.00,SSW,203,1.3,3.4,80,0.00,,,0.00,WUHU216HW,2014-01-21 02:07:00,
2014-01-20 18:12:00,34.9,29.0,0.00,ESE,113,1.3,3.4,79,0.00,,,0.00,WUHU216HW,2014-01-21 02:12:00,
2014-01-20 18:17:00,34.9,29.0,0.00,SE,135,0.4,4.7,79,0.00,,,0.00,WUHU216HW,2014-01-21 02:17:00,
2014-01-20 18:22:00,34.9,29.3,0.00,ENE,68,1.3,4.7,80,0.00,,,0.00,WUHU216HW,2014-01-21 02:22:00,
2014-01-20 18:27:00,34.9,29.3,0.00,ESE,113,0.4,3.6,80,0.00,,,0.00,WUHU216HW,2014-01-21 02:27:00,
2014-01-20 18:32:00,34.9,29.0,0.00,ESE,113,0.4,3.4,79,0.00,,,0.00,WUHU216HW,2014-01-21 02:32:00,
2014-01-20 18:37:00,34.9,29.0,0.00,ESE,113,2.5,3.4,79,0.00,,,0.00,WUHU216HW,2014-01-21 02:37:00,
2014-01-20 18:42:00,34.9,29.0,0.00,ESE,113,1.1,2.5,79,0.00,,,0.00,WUHU216HW,2014-01-21 02:42:00,
2014-01-20 18:47:00,34.9,29.0,0.00,SE,135,1.8,2.5,79,0.00,,,0.00,WUHU216HW,2014-01-21 02:47:00,
2014-01-20 18:52:00,34.9,29.3,0.00,East,90,1.1,4.3,80,0.00,,,0.00,WUHU216HW,2014-01-21 02:52:00,
2014-01-20 18:57:00,34.9,29.0,0.00,East,90,0.4,4.3,79,0.00,,,0.00,WUHU216HW,2014-01-21 02:57:00,
2014-01-20 19:02:00,34.9,29.3,0.00,SE,135,0.2,1.8,80,0.00,,,0.00,WUHU216HW,2014-01-21 03:02:00,
2014-01-20 19:07:00,35.1,29.5,0.00,SE,135,0.4,2.2,80,0.00,,,0.00,WUHU216HW,2014-01-21 03:07:00,
2014-01-20 19:12:00,35.1,29.5,0.00,East,90,0.9,3.4,80,0.00,,,0.00,WUHU216HW,2014-01-21 03:12:00,
2014-01-20 19:17:00,35.1,29.5,0.00,SE,135,0.4,3.4,80,0.00,,,0.00,WUHU216HW,2014-01-21 03:17:00,
2014-01-20 19:22:00,35.1,29.5,0.00,ESE,113,0.9,6.0,80,0.00,,,0.00,WUHU216HW,2014-01-21 03:22:00,
2014-01-20 19:27:00,35.1,29.5,0.00,ESE,113,0.7,6.0,80,0.00,,,0.00,WUHU216HW,2014-01-21 03:27:00,
2014-01-20 19:32:00,34.9,29.3,0.00,SE,135,0.7,2.5,80,0.00,,,0.00,WUHU216HW,2014-01-21 03:32:00,
2014-01-20 19:37:00,34.9,29.3,0.00,ESE,113,1.8,2.9,80,0.00,,,0.00,WUHU216HW,2014-01-21 03:37:00,
2014-01-20 19:42:00,34.9,29.3,0.00,ESE,113,0.9,2.9,80,0.00,,,0.00,WUHU216HW,2014-01-21 03:42:00,
2014-01-20 19:47:00,34.9,29.3,0.00,East,90,2.0,2.2,80,0.00,,,0.00,WUHU216HW,2014-01-21 03:47:00,
2014-01-20 19:52:00,34.9,29.3,0.00,East,90,0.0,3.4,80,0.00,,,0.00,WUHU216HW,2014-01-21 03:52:00,
2014-01-20 19:57:00,34.9,29.3,0.00,SSE,158,0.2,3.4,80,0.00,,,0.00,WUHU216HW,2014-01-21 03:57:00,
2014-01-20 20:02:00,34.9,29.3,0.00,ESE,113,0.2,2.7,80,0.00,,,0.00,WUHU216HW,2014-01-21 04:02:00,
2014-01-20 20:07:00,34.9,29.3,0.00,ESE,113,0.9,2.7,80,0.00,,,0.00,WUHU216HW,2014-01-21 04:07:00,
2014-01-20 20:12:00,34.9,29.3,0.00,East,90,0.4,2.7,80,0.00,,,0.00,WUHU216HW,2014-01-21 04:12:00,
2014-01-20 20:17:00,34.9,29.3,0.00,ESE,113,1.1,2.7,80,0.00,,,0.00,WUHU216HW,2014-01-21 04:17:00,
2014-01-20 20:22:00,34.9,29.3,0.00,ESE,113,0.0,2.7,80,0.00,,,0.00,WUHU216HW,2014-01-21 04:22:00,
2014-01-20 20:27:00,34.9,29.3,0.00,East,90,1.3,1.8,80,0.00,,,0.00,WUHU216HW,2014-01-21 04:27:00,
2014-01-20 20:32:00,34.9,29.3,0.00,ESE,113,1.3,2.2,80,0.00,,,0.00,WUHU216HW,2014-01-21 04:32:00,
2014-01-20 20:37:00,34.9,29.3,0.00,ESE,113,1.1,2.2,80,0.00,,,0.00,WUHU216HW,2014-01-21 04:37:00,
2014-01-20 20:42:00,34.9,29.3,0.00,ESE,113,2.2,4.0,80,0.00,,,0.00,WUHU216HW,2014-01-21 04:42:00,
2014-01-20 20:47:00,34.7,29.2,0.00,ESE,113,1.6,4.0,80,0.00,,,0.00,WUHU216HW,2014-01-21 04:47:00,
2014-01-20 20:52:00,34.7,29.2,0.00,ENE,68,1.8,2.5,80,0.00,,,0.00,WUHU216HW,2014-01-21 04:52:00,
2014-01-20 20:57:00,34.7,29.2,0.00,NE,45,0.9,3.4,80,0.00,,,0.00,WUHU216HW,2014-01-21 04:57:00,
2014-01-20 21:01:00,34.7,29.2,0.00,East,90,2.5,3.4,80,0.00,,,0.00,WUHU216HW,2014-01-21 05:01:00,
2014-01-20 21:02:00,34.7,29.2,0.00,ESE,113,1.8,3.4,80,0.00,,,0.00,WUHU216HW,2014-01-21 05:02:00,
2014-01-20 21:03:00,34.7,29.2,0.00,SSE,158,2.5,3.4,80,0.00,,,0.00,WUHU216HW,2014-01-21 05:03:00,
2014-01-20 21:08:00,34.6,29.0,0.00,SE,135,2.9,3.4,80,0.00,,,0.00,WUHU216HW,2014-01-21 05:08:00,
2014-01-20 21:13:00,34.6,29.3,0.00,SE,135,0.7,3.1,81,0.00,,,0.00,WUHU216HW,2014-01-21 05:13:00,
2014-01-20 21:18:00,34.6,29.3,0.00,ESE,113,2.5,2.5,81,0.00,,,0.00,WUHU216HW,2014-01-21 05:18:00,
2014-01-20 21:23:00,34.6,29.3,0.00,ESE,113,2.0,3.8,81,0.00,,,0.00,WUHU216HW,2014-01-21 05:23:00,
2014-01-20 21:28:00,34.6,29.3,0.00,ENE,68,0.2,4.3,81,0.00,,,0.00,WUHU216HW,2014-01-21 05:28:00,
2014-01-20 21:33:00,34.6,29.0,0.00,ESE,113,0.4,4.7,80,0.00,,,0.00,WUHU216HW,2014-01-21 05:33:00,
2014-01-20 21:38:00,34.6,29.0,0.00,ESE,113,1.6,4.7,80,0.00,,,0.00,WUHU216HW,2014-01-21 05:38:00,
2014-01-20 21:43:00,34.4,28.8,0.00,East,90,0.4,2.5,80,0.00,,,0.00,WUHU216HW,2014-01-21 05:43:00,
2014-01-20 21:48:00,34.4,29.1,0.00,SE,135,1.6,2.5,81,0.00,,,0.00,WUHU216HW,2014-01-21 05:48:00,
2014-01-20 21:53:00,34.4,29.1,0.00,ESE,113,1.1,3.8,81,0.00,,,0.00,WUHU216HW,2014-01-21 05:53:00,
2014-01-20 21:58:00,34.4,29.1,0.00,SE,135,0.2,3.8,81,0.00,,,0.00,WUHU216HW,2014-01-21 05:58:00,
2014-01-20 22:03:00,34.4,29.1,0.00,ESE,113,0.7,4.0,81,0.00,,,0.00,WUHU216HW,2014-01-21 06:03:00,
2014-01-20 22:07:00,34.4,29.3,0.00,ESE,113,1.1,4.0,82,0.00,,,0.00,WUHU216HW,2014-01-21 06:07:00,
2014-01-20 22:12:00,34.6,29.5,0.00,SSE,158,1.3,2.7,82,0.00,,,0.00,WUHU216HW,2014-01-21 06:12:00,
2014-01-20 22:17:00,34.4,29.3,0.00,East,90,0.4,2.7,82,0.00,,,0.00,WUHU216HW,2014-01-21 06:17:00,
2014-01-20 22:22:00,34.4,29.3,0.00,ESE,113,4.9,4.9,82,0.00,,,0.00,WUHU216HW,2014-01-21 06:22:00,
2014-01-20 22:27:00,34.2,29.2,0.00,East,90,0.2,4.9,82,0.00,,,0.00,WUHU216HW,2014-01-21 06:27:00,
2014-01-20 22:32:00,34.2,29.2,0.00,ESE,113,1.6,4.9,82,0.00,,,0.00,WUHU216HW,2014-01-21 06:32:00,
2014-01-20 22:37:00,34.2,29.2,0.00,SE,135,0.2,3.4,82,0.00,,,0.00,WUHU216HW,2014-01-21 06:37:00,
2014-01-20 22:42:00,34.2,29.2,0.00,SE,135,2.5,4.0,82,0.00,,,0.00,WUHU216HW,2014-01-21 06:42:00,
2014-01-20 22:47:00,34.2,29.2,0.00,SE,135,2.7,4.0,82,0.00,,,0.00,WUHU216HW,2014-01-21 06:47:00,
2014-01-20 22:52:00,34.2,29.2,0.00,ENE,68,1.1,3.6,82,0.00,,,0.00,WUHU216HW,2014-01-21 06:52:00,
2014-01-20 22:57:00,34.2,29.2,0.00,ENE,68,1.8,2.7,82,0.00,,,0.00,WUHU216HW,2014-01-21 06:57:00,
2014-01-20 23:02:00,34.2,29.2,0.00,ENE,68,1.1,2.7,82,0.00,,,0.00,WUHU216HW,2014-01-21 07:02:00,
2014-01-20 23:07:00,34.2,29.2,0.00,SE,135,2.5,2.9,82,0.00,,,0.00,WUHU216HW,2014-01-21 07:07:00,
2014-01-20 23:12:00,34.2,29.2,0.00,SE,135,0.9,2.9,82,0.00,,,0.00,WUHU216HW,2014-01-21 07:12:00,
2014-01-20 23:17:00,34.2,29.2,0.00,East,90,0.4,3.4,82,0.00,,,0.00,WUHU216HW,2014-01-21 07:17:00,
2014-01-20 23:22:00,34.2,29.2,0.00,SE,135,1.1,3.4,82,0.00,,,0.00,WUHU216HW,2014-01-21 07:22:00,
2014-01-20 23:27:00,34.2,29.2,0.00,SE,135,0.4,1.8,82,0.00,,,0.00,WUHU216HW,2014-01-21 07:27:00,
2014-01-20 23:32:00,34.2,29.2,0.00,ESE,113,1.3,3.6,82,0.00,,,0.00,WUHU216HW,2014-01-21 07:32:00,
2014-01-20 23:37:00,34.2,29.2,0.00,SE,135,1.3,3.6,82,0.00,,,0.00,WUHU216HW,2014-01-21 07:37:00,
2014-01-20 23:42:00,34.2,29.2,0.00,SE,135,0.4,4.3,82,0.00,,,0.00,WUHU216HW,2014-01-21 07:42:00,
2014-01-20 23:47:00,34.2,29.2,0.00,SE,135,0.7,4.3,82,0.00,,,0.00,WUHU216HW,2014-01-21 07:47:00,
2014-01-20 23:52:00,34.2,29.2,0.00,ESE,113,1.3,4.0,82,0.00,,,0.00,WUHU216HW,2014-01-21 07:52:00,
2014-01-20 23:57:00,34.2,29.2,0.00,ESE,113,0.7,3.8,82,0.00,,,0.00,WUHU216HW,2014-01-21 07:57:00,